Terminal Aerodrome Forecast
Issued by NWS

Home | Current Version | Previous Version | Text Only | Print | Product List | Glossary On
Versions: 1 2 3 4 5 6 7 8 9 10 11 12 13 14 15 16 17 18 19 20 21 22 23 24 25 26 27 28
000
FTUS46 KMTR 061500 AAA
TAFSFO
TAF AMD
KSFO 061502Z 0615/0718 25008KT P6SM SCT016
     FM061700 26012G16KT P6SM FEW015
     FM062000 27018G25KT P6SM FEW020
     FM062200 27025G30KT P6SM FEW020
     FM070300 27015KT P6SM FEW015
     FM070700 26013KT P6SM BKN015=

USA.gov is the U.S. government's official web portal to all federal, state and local government web resources and services.